N1DNE Weather Reports


time (UTC)temp
C
wind
direction
speed
KPH
gust
KPH
rain 1hr
cm
rain 24hr
cm
rain mn
cm
humidity
%
barometer
mb
20260504160247 18 273 6.4 17.7 0.00 0.00 0.00 39 1008.4
20260504150759 17 182 6.4 19.3 0.00 0.00 0.00 42 1008.9
20260504140749 16 185 4.8 12.9 0.00 0.00 0.00 47 1009.5
20260504130745 13 277 3.2 9.7 0.00 0.00 0.00 51 1010.1
20260504081740 3 235 0.0 0.0 0.00 0.00 0.00 87 1009.5
20260504080740 3 235 0.0 1.6 0.00 0.00 0.00 87 1009.5
20260504050732 3 235 0.0 0.0 0.00 0.00 0.00 84 1009.8
20260504045732 3 235 0.0 1.6 0.00 0.00 0.00 83 1009.8
20260504044732 3 235 0.0 0.0 0.00 0.00 0.00 82 1009.7
20260504044208 3 235 0.0 1.6 0.00 0.00 0.00 80 1009.8
20260504042734 4 235 0.0 3.2 0.00 0.00 0.00 79 1009.8
20260504041732 4 235 0.0 1.6 0.00 0.00 0.00 79 1009.7
20260504040730 4 235 0.0 1.6 0.00 0.00 0.00 80 1009.7
20260504035730 4 235 0.0 1.6 0.00 0.00 0.00 79 1009.6
20260504034728 5 235 0.0 1.6 0.00 0.00 0.00 79 1009.7
20260504033728 5 235 0.0 0.0 0.00 0.00 0.00 78 1009.6
20260504033207 5 235 0.0 0.0 0.00 0.00 0.00 78 1009.5
20260504032213 5 235 0.0 1.6 0.00 0.00 0.00 77 1009.4
20260504030728 5 235 0.0 1.6 0.00 0.00 0.00 77 1009.4
20260504025728 5 235 0.0 3.2 0.00 0.00 0.00 76 1009.4
20260504024729 6 235 0.0 1.6 0.00 0.00 0.00 76 1009.4
20260504024215 6 235 0.0 3.2 0.00 0.00 0.00 74 1009.5
20260504022727 6 235 0.0 1.6 0.00 0.00 0.00 72 1009.4
20260504021726 6 235 0.0 1.6 0.00 0.00 0.00 72 1009.3
20260504020727 6 235 0.0 0.0 0.00 0.00 0.00 71 1009.2
20260504015725 7 235 0.0 3.2 0.00 0.00 0.00 68 1009.3
20260504015635 7 235 1.6 3.2 0.00 0.00 0.00 68 1009.2
20260504013719 7 235 1.6 3.2 0.00 0.00 0.00 64 1009.0
20260504012719 8 235 0.0 1.6 0.00 0.00 0.00 63 1009.0
20260504011719 8 235 0.0 0.0 0.00 0.00 0.00 62 1008.9
20260504010719 8 235 0.0 0.0 0.00 0.00 0.00 64 1008.8
20260504005718 8 235 0.0 0.0 0.00 0.00 0.00 63 1008.6
20260504004719 9 235 0.0 1.6 0.00 0.00 0.00 60 1008.4
20260504003719 9 235 0.0 1.6 0.00 0.00 0.00 56 1008.2
20260504002721 10 235 0.0 1.6 0.00 0.00 0.00 53 1008.1
20260504001715 10 235 0.0 1.6 0.00 0.00 0.00 51 1008.0
20260504001150 10 235 1.6 3.2 0.00 0.00 0.00 49 1007.8
20260503235712 11 235 1.6 3.2 0.00 0.00 0.00 46 1007.7
20260503234715 11 235 1.6 3.2 0.00 0.00 0.00 44 1007.6
20260503233712 11 235 1.6 3.2 0.00 0.00 0.00 42 1007.5
20260503232714 11 235 1.6 3.2 0.00 0.00 0.00 43 1007.4
20260503231712 12 235 1.6 4.8 0.00 0.00 0.00 43 1007.3
20260503230713 12 234 1.6 3.2 0.00 0.00 0.00 44 1007.3
20260503225714 12 328 1.6 4.8 0.00 0.00 0.00 40 1007.2
20260503224708 12 281 1.6 4.8 0.00 0.00 0.00 42 1007.3
20260503223708 12 284 3.2 6.4 0.00 0.00 0.00 43 1007.2
20260503222706 12 214 3.2 12.9 0.00 0.00 0.00 41 1007.2
20260503221707 12 273 3.2 9.7 0.00 0.00 0.00 40 1007.1
20260503220706 12 317 3.2 9.7 0.00 0.00 0.00 40 1007.1
20260503215707 12 227 3.2 14.5 0.00 0.00 0.00 41 1007.1
20260503214709 12 0 1.6 9.7 0.00 0.00 0.00 42 1007.1
20260503213706 12 331 3.2 6.4 0.00 0.00 0.00 42 1007.2
20260503212707 12 347 4.8 12.9 0.00 0.00 0.00 41 1007.1
20260503211701 12 28 3.2 9.7 0.00 0.00 0.00 43 1007.2
20260503210701 11 26 4.8 17.7 0.00 0.00 0.00 42 1007.2
20260503205701 11 62 3.2 8.0 0.00 0.00 0.00 43 1007.0
20260503204701 11 5 3.2 16.1 0.00 0.00 0.00 43 1007.2
20260503203659 11 63 4.8 14.5 0.00 0.00 0.00 43 1007.3
20260503202701 11 0 4.8 12.9 0.00 0.00 0.00 43 1007.3
20260503202150 11 26 6.4 16.1 0.00 0.00 0.00 42 1007.2
20260503200659 11 355 4.8 12.9 0.00 0.00 0.00 45 1007.2
20260503195658 11 340 4.8 12.9 0.00 0.00 0.00 42 1007.2
20260503194657 11 323 4.8 17.7 0.00 0.00 0.00 43 1007.2
20260503193658 12 325 4.8 11.3 0.00 0.00 0.00 42 1007.2
20260503192657 12 270 4.8 17.7 0.00 0.00 0.00 43 1007.2
20260503191656 12 309 3.2 8.0 0.00 0.00 0.00 42 1007.1
20260503190655 12 321 4.8 12.9 0.00 0.00 0.00 41 1007.1
20260503190139 12 282 4.8 14.5 0.00 0.00 0.00 42 1006.9
20260503184657 12 301 4.8 12.9 0.00 0.00 0.00 42 1007.1
20260503183659 12 180 3.2 17.7 0.00 0.00 0.00 44 1007.1
20260503182657 11 355 4.8 16.1 0.00 0.00 0.00 42 1007.1
20260503181657 12 264 4.8 12.9 0.00 0.00 0.00 44 1007.0
20260503180657 11 14 4.8 14.5 0.00 0.00 0.00 44 1007.0
20260503180131 11 311 4.8 20.9 0.00 0.00 0.00 42 1006.9
20260503174656 11 304 6.4 14.5 0.00 0.00 0.00 42 1007.0
20260503173656 11 314 4.8 14.5 0.00 0.00 0.00 41 1007.1
20260503173128 11 350 4.8 14.5 0.00 0.00 0.00 44 1007.1
20260503172138 10 290 4.8 11.3 0.00 0.03 0.00 49 1007.2
20260503170653 10 265 3.2 11.3 0.00 0.03 0.00 50 1007.4